Terug naar catalogus

SL-12 DEB

ActiefMEO
NORAD 19753·DEBRIS·🇷🇺 Russia

Gelanceerd Jan 10, 1989 vanaf Baikonur Cosmodrome

Loading…

Volgende Passages (komende 24 uur)

TLE

VersSource: Space-Track

Epoch: Sep 14, 2026, 11:49 UTC

1 19753U 89001E   26257.49274069 -.00000011  00000-0  00000-0 0  9999
2 19753  65.0028  69.1154 0024863 212.6702 151.5780  2.13160798293599

Volg SL-12 DEB in realtime met AllMySat

Download on the App Store